Tracking 25963 objects as of 13-Aug-2022
HD Live streaming from Space Station
objects crossing your sky now

ONEWEB-0045

Track ONEWEB-0045 now!
10-day predictions
ONEWEB-0045 is classified as:


NORAD ID: 45151
Int'l Code: 2020-008W
Perigee: 1,223.1 km
Apogee: 1,226.5 km
Inclination: 87.9 °
Period: 109.8 minutes
Semi major axis: 7595 km
RCS: Unknown
Launch date: February 6, 2020
Source: United Kingdom (UK)
Launch site: TYURATAM MISSILE AND SPACE COMPLEX (TTMTR)
aabbcc
Your satellite tracking list
Your tracking list is empty




NASA's NSSDC Master Catalog

Two Line Element Set (TLE):
1 45151U 20008W   22224.76833440 -.00000273  00000-0 -80554-3 0  9992
2 45151  87.8820 300.1573 0002219  97.0132 263.1248 13.11414206126330
Source of the keplerian elements: AFSPC